星链-2445 (STARLINK-2445 )

导读 | 星芒AI

STARLINK-2445 是 SpaceX Starlink 项目中的一颗低轨通信卫星,属于第二代 Starlink 卫星(Gen2)批次。该卫星旨在为全球用户提供高速、低延迟的互联网服务,支持偏远地区的网络接入。它运行在约 550 公里的轨道高度,配备先进通信设备和激光链路,以提升数据传输效率和系统稳定性。STARLINK-2445 的发射和运行有助于扩展 Starlink 网络的覆盖范围和性能,推动全球宽带互联网的发展。

基本信息
目录编号:
48109
目录名称:
STARLINK-2445
国际标识:
2021-027T
轨道中心:
EARTH
卫星名称:
星链-2445
卫星全名:
星链-2445 (STARLINK-2445 )
卫星状态:
已陨落 最后检测时间 2024-03-27
发射日期:
2021-04-07 UTC
国别 :
美国 (US)
星等 :
--
轨道信息
数据来源 国际轨道数据
星历时间: 2024-03-27T15:15:12+0800
轨道信息已过期584天
半长轴: 6565.115km
偏心率: 0.0003818
轨道倾角: 53.025°
近地点辐角 144.578°
升交点赤经 60.824°
平近点角 319.912°
近地点: 184.473km
远地点: 189.487km
周期: 88.231分钟
每日圈数: 16.320719
详细信息
固有亮度:
5
最大亮度:
2.5
卫星平台:
Starlink V1.0
覆盖范围:
全球
运营商:
太空探索技术公司
运营商所在国:
美国
制造商(研发单位):
太空探索技术公司
制造商所在国:
美国
使用方式:
暂无
卫星简介
星链(Starlink)计划是由太空探索技术公司(SpaceX)提出的一个巨型低轨卫星互联网星座项目,计划在2019年至2024年间在太空搭建由约1.2万颗卫星组成的“星链”网络,其中1584颗将部署在地球上空550千米处的近地轨道,并从2020年开始工作。该卫星已陨落。